{"data":{"norad_id":62470,"intl_designator":"2024-254J","name":"STARLINK-11497 [DTC]","alt_names":[],"object_type":"PAYLOAD","status":"ACTIVE","operator":null,"country":"US","launch_date":"2024-12-31","launch_site_code":"AFETR","launch_vehicle":null,"mission":null,"orbit_class":"UNKNOWN","rcs_meters":null,"size_class":null,"mass_kg":null,"dimensions":null,"purposes":["comms"],"wikipedia_slug":null,"has_3d_model":false,"image_url":null,"decayed_at":null,"tle_current":{"epoch":"2026-05-25T00:16:19.257600Z","epoch_age_seconds":71155,"freshness":"FRESH","line1":"1 62470U 24254J   26145.01133400  .00168934  00000+0  12876-2 0  9992","line2":"2 62470  43.0034 123.0281 0003478 271.2448  88.8021 15.70944007 81409","mean_motion":15.70944007,"eccentricity":0.0003478,"inclination_deg":43.0034,"raan_deg":123.0281,"arg_perigee_deg":271.2448,"mean_anomaly_deg":88.8021,"bstar":0.0012876,"rev_number":8140,"period_min":91.664629266446,"perigee_km":353.85560485288,"apogee_km":358.54000814428,"semimajor_km":6734.3348064986,"source":"CELESTRAK","updated_at":"2026-05-25T13:38:19.692741Z"}}}